Location: Gila Cliff Dwellings National Monument
(33.2240°N, 108.2417°W)
Time: 19:24:01
(UTC-07:00)

Cosmos 2322 Rocket - Visible Passes

Search period start: 05 March 2015 00:00
Search period end: 15 March 2015 01:00
Orbit: 834 x 850 km, 71.0° (Epoch: 05 March)

Date Brightness Start Highest point End Pass type
(mag) Time Alt. Az. Time Alt. Az. Time Alt. Az.
10 Mar 4.6 21:47:47 10° N 21:48:04 11° N 21:48:04 11° N visible
11 Mar 4.4 21:32:56 10° N 21:33:48 13° NNE 21:33:48 13° NNE visible
12 Mar 4.1 21:18:05 10° NNE 21:19:35 15° NNE 21:19:35 15° NNE visible
12 Mar 5.0 23:01:07 10° NW 23:01:25 12° NW 23:01:25 12° NW visible
13 Mar 3.9 21:03:14 10° NNE 21:05:24 17° NE 21:05:24 17° NE visible
13 Mar 4.7 22:46:08 10° NNW 22:47:15 16° NW 22:47:15 16° NW visible
14 Mar 3.8 20:48:25 10° NNE 20:51:18 18° NE 20:51:18 18° NE visible
14 Mar 4.3 22:31:09 10° NNW 22:33:09 22° NW 22:33:09 22° NW visible
